{"data":{"norad_id":48802,"epoch":"2026-05-24T20:17:09.021120Z","epoch_age_seconds":84327,"freshness":"FRESH","line1":"1 48802U 21045AM  26144.84524330  .00000087  00000+0  19802-3 0  9997","line2":"2 48802  87.8987 263.8536 0001058  96.0088 264.1163 13.15546976241275","mean_motion":13.15546976,"eccentricity":0.0001058,"inclination_deg":87.8987,"raan_deg":263.8536,"arg_perigee_deg":96.0088,"mean_anomaly_deg":264.1163,"bstar":0.00019802,"rev_number":24127,"period_min":109.46017331729,"perigee_km":1200.974858619,"apogee_km":1202.578768382,"semimajor_km":7579.9138135005,"source":"CELESTRAK","updated_at":"2026-05-25T13:38:22.449211Z"}}